THOR ABLESTAR DEB, 967

Orbit data source: Space-Track

THOR ABLESTAR DEB, 967 is space debris in LEO originally from a launch on Sun, 13 Dec 1964 UTC launched from the Air Force Western Test Range (AFWTR). Debris objects in space refer to the collection of defunct objects orbiting the Earth. Examples of debris include non-operational satellites, rocket bodies, and fragments generated from explosions, collisions, or faulty payload assembly.

Loading next visibility...
Identifier
967, 1964-083F
Orbit
LEO
Last TLE update
13 hours ago
Origin
Manufacturer
Unknown
Mission
Spacecraft
Bus & Motor
Unknown
Mass
Unknown
Launch date (UTC)
1964-12-13 (61 years ago)
Launch vehicle
Unknown
Launch site
Air Force Western Test Range (AFWTR)
Object type
Payload
Rocket body
Debris
Shape & HBR
Unknown
Radar Cross Section
Small (<0.1 m²)

Expand to show TLE details & history

TLE from 13 hours ago
0 THOR ABLESTAR DEB
1 00967U 64083F   25191.46181330  .00000205  00000-0  23228-3 0  9994
2 00967  89.9504 175.4535 0020928 337.1882 184.4368 13.67227012  9286
Epoch: 2025-07-10T11:05Z
TLE epoch observation values (Epoch: 2025-07-10T11:05:00.669Z)
Latitude
18.38584°
Longitude
-99.44344°
Altitude
1,027.413 km
Speed
7.332 km/s
True Right ascension
23h 41m 44s
True Declination
18° 17' 13"
Sunlit
Object was in daylight at epoch
Visualization orbit readout
Latitude
9.73522°
Longitude
80.57857°
Altitude
998.994 km
Speed
7.359 km/s
Apparent Right ascension
09h 58m 20s
Apparent Declination
-45° 12' 07"
Sunlit
Object is in daylight
Visualization observer readout
Local Sidereal Time
12:39:50
Azimuth
207.186° SW
Elevation
-2.5°
Doppler factor
1
Orbital elements
Apogee altitude
1,022.023 km
Perigee altitude
991.113 km
Semi-major axis
7,384.705 km
Eccentricity
0.00209
Inclination
89.9504°
RAAN
175.4535°
Arg. of periapsis
337.1882°
True anomaly
Unknown
Mean anomaly
184.4368°
Eccentric anomaly
Unknown
Mean motion
3.42014 °/min
Orbital period
105.26 mins
BSTAR
0.00023228
Loading maneuver chart data...
Loading SW <> Apogee altitude chart data...

THOR ABLESTAR DEB Visibility forecast

Observer location: undefined°, undefined°

Span
Click to sort rows by Start time (UTC) header in descending order
Start Az.
Max El. time (UTC)
Max El. Az.
Max El.
End time (UTC)
End Az.
10 mins2025-07-11 00:27:36.931Z223.147° SW2025-07-11 00:32:36.931Z278.551° WNW24.223°2025-07-11 00:37:36.931Z332.967° NNW
6 mins2025-07-11 09:45:36.931Z50.286° ENE2025-07-11 09:48:36.931Z81.268° E15.293°2025-07-11 09:51:36.931Z110.556° ESE
10 mins2025-07-11 11:29:36.931Z356.665° N2025-07-11 11:33:36.931Z311.522° NW43.613°2025-07-11 11:39:36.931Z191.461° SSW
11 mins2025-07-11 23:17:36.931Z176.556° S2025-07-11 23:22:36.931Z348.635° N44.904°2025-07-11 23:28:36.931Z357.825° N
|